Back to catalog

SOLRAD 11A

AliveScienceMEO
NORAD 8748·PAYLOAD·🇺🇸 United States

Launched Mar 15, 1976 from Cape Canaveral Space Force Station

Loading…

Next Passes (next 24 hours)

TLE

FreshSource: Space-Track

Epoch: Sep 18, 2026, 07:30 UTC

1 08748U 76023C   26261.31275813 -.00000582  00000-0  00000-0 0  9998
2 08748  14.7052 358.9412 0065199 212.3796 345.1516  0.19680042  5640

Track SOLRAD 11A in real time with AllMySat

Download on the App Store